Location: Ariel
(45.9570°N, 122.5700°W)
Time: 00:03:12
(UTC-07:00)

Altair - Pass Details

Date: 27 July 2019
Orbit: 1501 x 1683 km, 47.2° (Epoch: 24 August)

Event Time Altitude Azimuth Distance (km) Brightness Sun altitude
Rises 19:07:46 0° 289° (WNW) 4,655 11.9 15.1°
Reaches altitude 10° 19:11:53 10° 273° (W) 3,689 11.8 14.4°
Maximum altitude 19:17:48 19° 232° (SW) 3,063 9.8 13.4°
Drops below altitude 10° 19:23:50 10° 192° (SSW) 3,758 9.6 12.4°
Sets 19:28:08 0° 176° (S) 4,773 9.9 11.7°
